OEFPT EDDV-EDDH

Flight info

Callsign OEFPT
Flight time 0h 43m
Altitude 5000
Route CEL1G CEL Q282 DIRBO T902 RARUP RARUP6A
Aircraft DA42/L-SDFGRY/C

Departure

Time 2026-05-06 11:12
Airport Hannover Airport (EDDV)

Arrival

Time 2026-05-06 11:55
Airport Hamburg Helmut Schmidt Airport (EDDH)
Time Latitude Longitude Altitude Speed Heading
2026-05-06 10:47 52.46312 9.69328 172 ft 0 kts 72°
2026-05-06 11:05 52.46314 9.69334 172 ft 0 kts 71°
2026-05-06 11:05 52.46302 9.69351 172 ft 6 kts 212°
2026-05-06 11:05 52.46319 9.69289 172 ft 8 kts 353°
2026-05-06 11:06 52.46361 9.69248 172 ft 7 kts 268°
2026-05-06 11:06 52.46340 9.69142 172 ft 15 kts 248°
2026-05-06 11:06 52.46286 9.68917 172 ft 27 kts 249°
2026-05-06 11:06 52.46185 9.68763 172 ft 22 kts 140°
2026-05-06 11:07 52.46068 9.68888 172 ft 21 kts 138°
2026-05-06 11:07 52.45940 9.69048 172 ft 25 kts 137°
2026-05-06 11:07 52.45807 9.69199 172 ft 17 kts 175°
2026-05-06 11:07 52.45702 9.69152 172 ft 15 kts 191°
2026-05-06 11:08 52.45598 9.69142 173 ft 14 kts 180°
2026-05-06 11:08 52.45554 9.69139 173 ft 0 kts 182°
2026-05-06 11:11 52.45553 9.69139 173 ft 2 kts 181°
2026-05-06 11:11 52.45484 9.69136 179 ft 12 kts 159°
2026-05-06 11:11 52.45456 9.69233 179 ft 21 kts 88°
2026-05-06 11:11 52.45439 9.69834 188 ft 78 kts 95°
2026-05-06 11:12 52.45375 9.70729 475 ft 82 kts 93°
2026-05-06 11:12 52.45365 9.71719 806 ft 88 kts 85°
2026-05-06 11:12 52.45384 9.72701 1269 ft 82 kts 85°
2026-05-06 11:12 52.45359 9.73608 1618 ft 78 kts 87°
2026-05-06 11:13 52.45331 9.74481 1910 ft 78 kts 90°
2026-05-06 11:13 52.45302 9.75359 2200 ft 76 kts 91°
2026-05-06 11:13 52.45271 9.76224 2487 ft 77 kts 91°
2026-05-06 11:13 52.45242 9.77143 2751 ft 83 kts 92°
2026-05-06 11:14 52.45213 9.78084 3077 ft 81 kts 94°
2026-05-06 11:14 52.45186 9.78992 3417 ft 80 kts 93°
2026-05-06 11:14 52.45160 9.79927 3729 ft 83 kts 92°
2026-05-06 11:14 52.45139 9.80884 4064 ft 84 kts 93°
2026-05-06 11:15 52.45102 9.81866 4410 ft 87 kts 94°
2026-05-06 11:15 52.45070 9.82865 4804 ft 89 kts 93°
2026-05-06 11:15 52.45041 9.83945 4997 ft 110 kts 93°
2026-05-06 11:15 52.44994 9.85316 5003 ft 129 kts 93°
2026-05-06 11:16 52.44952 9.86868 4988 ft 142 kts 94°
2026-05-06 11:16 52.44894 9.88498 4989 ft 147 kts 93°
2026-05-06 11:16 52.44937 9.90176 4978 ft 148 kts 79°
2026-05-06 11:16 52.45318 9.91737 4992 ft 151 kts 60°
2026-05-06 11:17 52.46050 9.93005 4991 ft 156 kts 40°
2026-05-06 11:17 52.47010 9.93824 4993 ft 155 kts 27°
2026-05-06 11:17 52.47993 9.94570 4991 ft 156 kts 29°
2026-05-06 11:17 52.48976 9.95325 4992 ft 156 kts 29°
2026-05-06 11:18 52.49962 9.96106 4996 ft 158 kts 28°
2026-05-06 11:18 52.51069 9.96917 4996 ft 159 kts 29°
2026-05-06 11:18 52.52084 9.97652 5003 ft 160 kts 25°
2026-05-06 11:18 52.53101 9.98408 4990 ft 161 kts 31°
2026-05-06 11:19 52.54082 9.99272 4983 ft 163 kts 18°
2026-05-06 11:19 52.55214 9.99039 5004 ft 172 kts 336°
2026-05-06 11:19 52.56058 9.97633 5020 ft 177 kts 307°
2026-05-06 11:19 52.56856 9.96057 4981 ft 180 kts 309°
2026-05-06 11:20 52.57573 9.94408 4994 ft 181 kts 307°
2026-05-06 11:20 52.58255 9.92661 4994 ft 182 kts 304°
2026-05-06 11:20 52.58909 9.90886 4995 ft 181 kts 303°
2026-05-06 11:20 52.59561 9.89112 4989 ft 180 kts 304°
2026-05-06 11:21 52.60210 9.87370 4988 ft 177 kts 303°
2026-05-06 11:21 52.60851 9.85652 4997 ft 175 kts 304°
2026-05-06 11:21 52.61486 9.83952 4997 ft 175 kts 304°
2026-05-06 11:21 52.62124 9.82236 5005 ft 177 kts 304°
2026-05-06 11:22 52.62777 9.80503 4989 ft 179 kts 304°
2026-05-06 11:22 52.63429 9.78764 4991 ft 179 kts 304°
2026-05-06 11:22 52.64088 9.77014 5014 ft 182 kts 300°
2026-05-06 11:22 52.64689 9.75153 4995 ft 185 kts 303°
2026-05-06 11:23 52.65349 9.73337 5001 ft 185 kts 304°
2026-05-06 11:23 52.66026 9.71544 4990 ft 184 kts 304°
2026-05-06 11:23 52.66668 9.69810 4989 ft 175 kts 303°
2026-05-06 11:23 52.67296 9.68128 4991 ft 170 kts 303°
2026-05-06 11:24 52.67909 9.66498 4988 ft 165 kts 304°
2026-05-06 11:24 52.68498 9.64913 4990 ft 160 kts 303°
2026-05-06 11:24 52.69073 9.63359 4991 ft 159 kts 304°
2026-05-06 11:24 52.69648 9.61800 4989 ft 159 kts 304°
2026-05-06 11:25 52.70220 9.60243 4987 ft 158 kts 303°
2026-05-06 11:25 52.70793 9.58706 4995 ft 157 kts 303°
2026-05-06 11:25 52.71370 9.57157 4997 ft 159 kts 304°
2026-05-06 11:25 52.71954 9.55591 5001 ft 161 kts 303°
2026-05-06 11:26 52.72545 9.54003 5000 ft 163 kts 304°
2026-05-06 11:26 52.73129 9.52415 5003 ft 165 kts 304°
2026-05-06 11:26 52.73726 9.50776 4998 ft 168 kts 303°
2026-05-06 11:26 52.74329 9.49111 4992 ft 170 kts 304°
2026-05-06 11:27 52.74941 9.47441 4981 ft 170 kts 304°
2026-05-06 11:27 52.75555 9.45774 4999 ft 169 kts 304°
2026-05-06 11:27 52.76183 9.44116 4984 ft 171 kts 305°
2026-05-06 11:27 52.76814 9.42453 4993 ft 170 kts 303°
2026-05-06 11:28 52.77416 9.40765 4981 ft 170 kts 303°
2026-05-06 11:28 52.78108 9.39223 4986 ft 164 kts 320°
2026-05-06 11:28 52.79095 9.38530 4990 ft 154 kts
2026-05-06 11:28 52.80090 9.38969 5008 ft 148 kts 28°
2026-05-06 11:29 52.81088 9.39451 4995 ft 152 kts 13°
2026-05-06 11:29 52.82145 9.39590 4994 ft 152 kts
2026-05-06 11:29 52.83196 9.39659 4993 ft 151 kts
2026-05-06 11:29 52.84248 9.39724 4994 ft 151 kts
2026-05-06 11:30 52.85289 9.39788 4994 ft 149 kts
2026-05-06 11:30 52.86328 9.39857 4991 ft 149 kts
2026-05-06 11:30 52.87356 9.39915 5005 ft 147 kts
2026-05-06 11:30 52.88366 9.39979 4993 ft 147 kts 10°
2026-05-06 11:31 52.89384 9.40043 5001 ft 147 kts
2026-05-06 11:31 52.90407 9.40105 5001 ft 147 kts
2026-05-06 11:31 52.91428 9.40174 4999 ft 146 kts
2026-05-06 11:31 52.92448 9.40224 4994 ft 147 kts
2026-05-06 11:32 52.93479 9.40283 5000 ft 148 kts
2026-05-06 11:32 52.94507 9.40364 5005 ft 148 kts
2026-05-06 11:32 52.95541 9.40432 5000 ft 148 kts
2026-05-06 11:32 52.96570 9.40492 5000 ft 148 kts
2026-05-06 11:33 52.97591 9.40589 5006 ft 144 kts 21°
2026-05-06 11:33 52.98497 9.41204 4975 ft 144 kts 30°
2026-05-06 11:33 52.99407 9.41894 4984 ft 144 kts 28°
2026-05-06 11:33 53.00341 9.42512 4975 ft 146 kts 26°
2026-05-06 11:34 53.01280 9.43147 4981 ft 146 kts 28°
2026-05-06 11:34 53.02224 9.43808 4951 ft 152 kts 25°
2026-05-06 11:34 53.03217 9.44363 4965 ft 150 kts 26°
2026-05-06 11:34 53.04167 9.45005 4986 ft 148 kts 28°
2026-05-06 11:35 53.05122 9.45678 4981 ft 150 kts 28°
2026-05-06 11:35 53.06082 9.46318 4969 ft 146 kts 27°
2026-05-06 11:35 53.07015 9.46930 4973 ft 142 kts 27°
2026-05-06 11:35 53.07933 9.47538 4993 ft 143 kts 28°
2026-05-06 11:36 53.08874 9.48158 4974 ft 148 kts 26°
2026-05-06 11:36 53.09831 9.48774 4980 ft 145 kts 27°
2026-05-06 11:36 53.10770 9.49404 4986 ft 147 kts 27°
2026-05-06 11:36 53.11739 9.49974 4973 ft 156 kts 16°
2026-05-06 11:37 53.12772 9.50526 4971 ft 158 kts 28°
2026-05-06 11:37 53.13832 9.51004 4974 ft 157 kts 13°
2026-05-06 11:37 53.14873 9.51264 4979 ft 147 kts 17°
2026-05-06 11:37 53.15802 9.51809 4976 ft 139 kts 31°
2026-05-06 11:38 53.16680 9.52481 4976 ft 138 kts 30°
2026-05-06 11:38 53.17561 9.53115 4974 ft 138 kts 29°
2026-05-06 11:38 53.18440 9.53726 4982 ft 136 kts 29°
2026-05-06 11:38 53.19315 9.54326 4983 ft 135 kts 28°
2026-05-06 11:39 53.20189 9.54925 4980 ft 136 kts 28°
2026-05-06 11:39 53.21072 9.55530 4983 ft 138 kts 28°
2026-05-06 11:39 53.21963 9.56141 4978 ft 139 kts 29°
2026-05-06 11:39 53.22849 9.56748 4981 ft 140 kts 28°
2026-05-06 11:40 53.23752 9.57368 4976 ft 141 kts 28°
2026-05-06 11:40 53.24661 9.57992 4981 ft 141 kts 28°
2026-05-06 11:40 53.25563 9.58609 4979 ft 140 kts 28°
2026-05-06 11:40 53.26461 9.59226 4979 ft 140 kts 28°
2026-05-06 11:41 53.27371 9.59851 4988 ft 143 kts 28°
2026-05-06 11:41 53.28293 9.60486 4984 ft 143 kts 28°
2026-05-06 11:41 53.29211 9.61116 4987 ft 143 kts 28°
2026-05-06 11:41 53.30137 9.61765 4992 ft 146 kts 28°
2026-05-06 11:42 53.31082 9.62420 4979 ft 148 kts 28°
2026-05-06 11:42 53.32047 9.63063 5003 ft 151 kts 29°
2026-05-06 11:42 53.33047 9.63759 5023 ft 156 kts 30°
2026-05-06 11:42 53.33727 9.65058 4932 ft 157 kts 82°
2026-05-06 11:43 53.34334 9.66489 4964 ft 157 kts 38°
2026-05-06 11:43 53.35334 9.67211 4970 ft 162 kts 11°
2026-05-06 11:43 53.36443 9.67266 4969 ft 153 kts 19°
2026-05-06 11:44 53.38356 9.68442 4983 ft 142 kts 26°
2026-05-06 11:44 53.38962 9.68830 4983 ft 140 kts 26°
2026-05-06 11:44 53.39921 9.69118 4976 ft 146 kts 355°
2026-05-06 11:44 53.41085 9.67914 4986 ft 151 kts 325°
2026-05-06 11:45 53.41877 9.66765 4986 ft 150 kts 324°
2026-05-06 11:45 53.42412 9.65984 4987 ft 150 kts 324°
2026-05-06 11:45 53.43186 9.64847 4991 ft 150 kts 324°
2026-05-06 11:45 53.43983 9.63686 5001 ft 154 kts 324°
2026-05-06 11:46 53.44804 9.62498 5001 ft 158 kts 323°
2026-05-06 11:46 53.45639 9.61249 4994 ft 162 kts 322°
2026-05-06 11:46 53.46597 9.60376 5004 ft 155 kts 360°
2026-05-06 11:46 53.47618 9.60785 4869 ft 152 kts 39°
2026-05-06 11:47 53.48175 9.62204 4721 ft 146 kts 70°
2026-05-06 11:47 53.48240 9.63912 4486 ft 150 kts 82°
2026-05-06 11:47 53.48825 9.65352 4270 ft 150 kts 57°
2026-05-06 11:47 53.49080 9.66995 3982 ft 148 kts 83°
2026-05-06 11:48 53.49160 9.68665 3774 ft 140 kts 85°
2026-05-06 11:48 53.49330 9.70198 3572 ft 128 kts 71°
2026-05-06 11:48 53.49676 9.71543 3363 ft 124 kts 58°
2026-05-06 11:48 53.50170 9.72713 3165 ft 122 kts 55°
2026-05-06 11:49 53.50683 9.73828 2993 ft 117 kts 54°
2026-05-06 11:49 53.51166 9.74842 2993 ft 109 kts 54°
2026-05-06 11:49 53.51643 9.75832 2995 ft 109 kts 53°
2026-05-06 11:49 53.52122 9.76799 2997 ft 110 kts 53°
2026-05-06 11:50 53.52620 9.77804 2971 ft 114 kts 53°
2026-05-06 11:50 53.53146 9.78871 2835 ft 123 kts 53°
2026-05-06 11:50 53.53700 9.79982 2663 ft 122 kts 53°
2026-05-06 11:50 53.54230 9.81053 2502 ft 117 kts 52°
2026-05-06 11:51 53.54741 9.82080 2346 ft 112 kts 52°
2026-05-06 11:51 53.55238 9.83083 2187 ft 111 kts 52°
2026-05-06 11:51 53.55726 9.84066 2041 ft 109 kts 52°
2026-05-06 11:51 53.56210 9.85044 1894 ft 108 kts 52°
2026-05-06 11:52 53.56695 9.86025 1764 ft 108 kts 51°
2026-05-06 11:52 53.57185 9.87014 1592 ft 111 kts 51°
2026-05-06 11:52 53.57687 9.88014 1434 ft 113 kts 51°
2026-05-06 11:52 53.58190 9.89031 1274 ft 116 kts 50°
2026-05-06 11:53 53.58710 9.90097 1093 ft 120 kts 49°
2026-05-06 11:53 53.59254 9.91178 926 ft 120 kts 50°
2026-05-06 11:53 53.59743 9.92159 766 ft 97 kts 48°
2026-05-06 11:53 53.60168 9.93029 648 ft 94 kts 48°
2026-05-06 11:54 53.60584 9.93871 520 ft 89 kts 47°
2026-05-06 11:54 53.60967 9.94641 399 ft 85 kts 45°
2026-05-06 11:54 53.61343 9.95408 316 ft 87 kts 48°
2026-05-06 11:54 53.61720 9.96139 203 ft 80 kts 53°
2026-05-06 11:55 53.62066 9.96844 71 ft 75 kts 49°
2026-05-06 11:55 53.62345 9.97415 43 ft 46 kts 50°
2026-05-06 11:55 53.62479 9.97705 41 ft 18 kts 63°
2026-05-06 11:55 53.62434 9.97857 44 ft 14 kts 120°
2026-05-06 11:56 53.62439 9.97986 45 ft 10 kts 76°
2026-05-06 11:56 53.62466 9.98086 45 ft 12 kts 57°
2026-05-06 11:56 53.62534 9.98236 45 ft 16 kts 50°
2026-05-06 11:56 53.62593 9.98354 45 ft 10 kts 50°
2026-05-06 11:57 53.62642 9.98450 45 ft 13 kts 50°
2026-05-06 11:57 53.62690 9.98549 45 ft 9 kts 52°
2026-05-06 11:57 53.62724 9.98621 45 ft 7 kts 71°
2026-05-06 11:57 53.62694 9.98667 45 ft 7 kts 149°
2026-05-06 11:58 53.62695 9.98719 45 ft 4 kts 61°
2026-05-06 11:58 53.62699 9.98731 45 ft 2 kts 61°
2026-05-06 11:58 53.62699 9.98733 45 ft 0 kts 60°
2026-05-06 12:11 53.62701 9.98735 45 ft 3 kts 22°